STARLINK-37519, 69298

Orbit data source: Space-Track

STARLINK-37519, 69298 is a payload satellite owned by SpaceX/Seattle (US) in SSO that was launched on Sat, 30 May 2026 UTC via an FALCON 9 launch vehicle from the Air Force Western Test Range (AFWTR). Payload-class satellites include a variety of spacecraft equipped with specific instruments for various scientific and technological missions. These include communications satellites like Starlink; space stations such as the ISS; scientific satellites like the Hubble; Earth observation satellites from companies like Planet Labs, Umbra, and HawkEye 360; GPS; miniature CubeSats for education and research; and military/defense satellites.

Loading next visibility...
Identifier
69298, 2026-119C
Orbit
SSO
Country
Flag of USUS
Related business
Manufacturer
SpaceX/Seattle
Mission
Operational spacecraft
Bus & Motor
STARLINK V2MO, Unknown motor
Mass
575 kg wet, ~530 kg dry
Launch date (UTC)
2026-05-30 (2 months ago)
Launch vehicle
FALCON 9
Launch site
Air Force Western Test Range (AFWTR)
Object type
Payload
Rocket body
Debris
Shape & HBR
Unknown shape, 17.7 m
Radar Cross Section
Large (>1 m²)

Expand to show TLE details & history
Last TLE update: 15 hours ago

TLE from 15 hours ago
0 STARLINK-37519
1 69298U 26119C   26202.05184967  .00013122  00000-0  40802-3 0  9991
2 69298  97.2859 227.6244 0000963 155.1984 204.9305 15.33449822  9243
Epoch: 2026-07-21T01:14Z
TLE epoch observation values (Epoch: 2026-07-21T01:14:39.811Z)
Latitude
-0.00004°
Longitude
-89.86856°
Altitude
469.239 km
Speed
7.631 km/s
True Right ascension
15h 10m 29s
True Declination
0° 00' 00"
Sunlit
Object was in daylight at epoch
Visualization orbit readout
Latitude
Unknown
Longitude
Unknown
Altitude
Unknown
Speed
Unknown
Apparent Right ascension
Unknown
Apparent Declination
Unknown
Sunlit
N/A
Visualization observer readout
Local Sidereal Time
04:59:49
Azimuth
Unknown
Elevation
Unknown
Doppler factor
Unknown
Orbital elements
Apogee altitude
463.13 km
Perigee altitude
461.813 km
Semi-major axis
6,840.609 km
Eccentricity
0.0001
Inclination
97.2859°
RAAN
227.6244°
Arg. of periapsis
155.1984°
True anomaly
204.92585°
Mean anomaly
204.9305°
Eccentric anomaly
204.92817°
Mean motion
3.8362 °/min
Orbital period
93.84 mins
BSTAR
0.00040802
Loading maneuver chart data...
Computing Atmospheric mass density...
Loading historical data...
Loading historical data...
Loading historical data...
Loading historical data...
Loading historical data...
Loading historical data...
Loading historical data...

Documentation

Showing up to 5 results
|